Tracking 23611 objects as of 18-Sep-2021
HD Live streaming from Space Station
objects crossing your sky now
Track INSPIRATION-4

USA 65

Track USA 65 now!
USA 65 is classified as:


NORAD ID: 20929
Int'l Code: 1990-095A
Perigee: 36,288.8 km
Apogee: 36,365.8 km
Inclination: 15.1 °
Period: 1,463.4 minutes
Semi major axis: 42698 km
RCS: Unknown
Launch date: November 13, 1990
Source: United States (US)
Launch site: AIR FORCE EASTERN TEST RANGE (AFETR)
aabbcc
Your satellite tracking list
Your tracking list is empty




NASA's NSSDC Master Catalog

Two Line Element Set (TLE):
1 20929U 90095A   21260.64948660 -.00000194  00000-0  00000-0 0  9994
2 20929  15.0540 356.7884 0009013  61.4958 298.6204  0.98398251  8404
Source of the keplerian elements: McCants